Погода в Ягунове

Россия / Кемеровская область (Кузбасс)     55°14′19″N   86°00′06″E
темп.,
°C
ветер,
м/с
пор.,
м/с
влажн.,
%
обл.,
%
осадки,
мм/ч
давл.,
гПа
погр.,
м
9 марта, вт
вт901:00−1з91486100 0.8 1011896
04:00−9з61191100 0.1 1017461
07:00−11зюз61491100 0.1 1023474
10:00−11юз61289100 0.0 1025653
13:00−9юз61083100 0.0 1027755
16:00−7ююз6108157 0.0 1026884
19:00−9ююз4118863 0.0 1026283
22:00−11ююз5128998 0.0 1025316
10 марта, ср
ср1001:00−12ююз499290 0.0 1023203
04:00−15ю369233 0.0 102396
07:00−15ю349133 0.0 102149
10:00−11ю479372 0.0 1020250
13:00−6ю479384 0.1 1018465
16:00−2ююз5786100 0.1 1017781
19:00−2ююв4990100 0.1 1014416
22:00−2ююв61392100 0.0 1010324
11 марта, чт
чт1101:00−1ююв71586100 0.0 1006439
04:00+1ююз71684100 0.0 1004866
07:00+1юз81698100 0.4 1005920
10:00−4зюз9168293 0.3 1009810
13:00−6зюз7138597 0.3 1013873
16:00−4юз61086100 0.1 10151028
19:00−5юз61285100 0.2 1017883
22:00−10ю499049 0.0 1019165
12 марта, пт
пт1201:00−9ююв6129262 0.0 1017307
04:00−6ю71694100 0.4 1012800
07:00−6зюз91785100 1.6 1012937
10:00−10зюз8167467 0.0 1015931
13:00−10зюз8137633 0.0 10171176
16:00−10зюз8138069 0.0 10181331
19:00−14зюз4108784 0.1 1019304
22:00−17юз489288 0.0 1020137
13 марта, сб
сб1301:00−20юз349761 0.0 102067
04:00−21юз339899 0.1 101951
07:00−20юз3797100 0.1 1020217
10:00−19з5993100 0.2 1021541
13:00−16з61089100 0.3 1023775
16:00−16зюз71185100 0.1 1026766
19:00−18зюз5128897 0.1 1029494
22:00−20юз5129321 0.0 1032318